Tracking 30922 objects as of 2-Jul-2025
HD Live streaming from Space Station
objects crossing your sky now

BREEZE-M DEB

Track BREEZE-M DEB now!
10-day predictions


NORAD ID: 38922
Int'l Code: 2012-044BF
Perigee: 263.9 km
Apogee: 2,707.7 km
Inclination: 50.0 °
Period: 115.5 minutes
Semi major axis: 7856 km
RCS: 0.249 m2 (medium)
Launch date: August 6, 2012
Source: Commonwealth of Independent States (former USSR) (CIS)
Launch site: TYURATAM MISSILE AND SPACE COMPLEX (TTMTR)

Note: This is SATELLITE DEBRIS
Your satellite tracking list
Your tracking list is empty




NASA's NSSDC Master Catalog

Two Line Element Set (TLE):
1 38922U 12044BF  25182.88790058  .00028662  50522-5  49548-3 0  9994
2 38922  50.0213  65.1351 1555218 178.3793 182.3000 12.46612487520083
Source of the keplerian elements: AFSPC